Voltar ao catálogo

STARLINK-34722

AtivoComunicaçõesSSO
NORAD 64851·PAYLOAD·🇺🇸 United States

Lançado Jul 19, 2025 de Vandenberg Space Force Base

Loading…

Próximas Passagens (próximas 24 horas)

TLE

AtualizadoSource: CelesTrak SupGP

Época: Sep 15, 2026, 02:35 UTC

1 64851C 25152K   26258.10812500 -.00004318  00000+0 -13400-3 0  2585
2 64851  97.2833 108.7422 0002424  79.3800  72.6530 15.33452668    18

Acompanhe STARLINK-34722 em tempo real com AllMySat

Download on the App Store